Simultaneous Nadir Overpasses (SNOs) Predictions

Prediction of SNOs between GOES-14 and NOAA-20 Satellite Orbit:

Table of predicted SNOs for the next 14.0 days since TLE Epoch: 10/7/2023
Index Date Time (GOES-14) GOES-14 Lat,Lon NOAA-20 Lat,Lon Distance(km) Time Diff (sec)
1 10/07/2023 08:49:30 0.24,-108.61 0.86,-111.26 303.18 80
2 10/08/2023 08:33:25 0.25,-108.60 -0.19,-106.73 213.88 80
3 10/09/2023 20:52:39 -0.22,-108.53 -0.99,-112.03 398.33 80
4 10/10/2023 20:36:33 -0.23,-108.53 0.01,-107.49 119.07 80
5 10/12/2023 08:55:39 0.20,-108.61 1.10,-112.77 473.35 80
6 10/13/2023 08:39:33 0.22,-108.61 0.10,-108.23 44.20 80
7 10/15/2023 20:39:59 -0.21,-108.53 -0.32,-108.97 50.46 80
8 10/16/2023 20:23:53 -0.22,-108.53 0.69,-104.44 466.91 80
9 10/18/2023 08:42:58 0.19,-108.60 0.46,-109.70 126.01 80
10 10/19/2023 08:26:52 0.21,-108.59 -0.55,-105.16 390.90 80
11 10/20/2023 20:46:06 -0.17,-108.51 -0.59,-110.47 222.35 80
